Location: Roland
(31.1349°N, 85.4372°W)
Time: 00:44:53
(UTC+00:00)

S-56A Canister/Altair - Pass Details

Date: 22 April 2021
Orbit: 632 x 2500 km, 38.9° (Epoch: 06 May)

Event Time Altitude Azimuth Distance (km) Brightness Sun altitude
Rises 00:31:54 0° 195° (SSW) 5,940 12.0 -4.4°
Reaches altitude 10° 00:37:35 10° 181° (S) 4,681 11.4 -5.6°
Maximum altitude 00:45:34 20° 141° (SE) 3,467 10.4 -7.2°
Drops below altitude 10° 00:52:01 10° 100° (E) 3,693 10.3 -8.5°
Enters shadow 00:52:28 - 98° (E) 3,755 10.4 -8.6°
